Location: Mahannah Oil Field
(37.4664°N, 96.6003°W)
Time: 08:40:01
(UTC+00:00)

deb Explorer IX - Pass Details

Date: 01 February 2021
Orbit: 538 x 1101 km, 38.8° (Epoch: 07 March)

Event Time Altitude Azimuth Distance (km) Brightness Sun altitude
Rises 03:27:11 0° 278° (W) 3,548 ? -43.2°
Reaches altitude 10° 03:30:55 10° 258° (WSW) 2,477 ? -43.9°
Enters shadow 03:31:39 12° 252° (WSW) 2,310 ? -44.0°
